Regional Weather Roundup
Issued by NWS

Home | Current Version | Previous Version | Graphics & Text | Print | Product List | Glossary On
Versions: 1 2 3 4 5 6 7 8 9 10 11 12 13 14 15 16 17 18 19 20 21 22 23 24 25 26 27 28 29 30 31 32 33 34 35 36 37 38 39 40 41 42 43 44 45 46 47 48 49 50
000
ASUS45 KABQ 252301
RWRNM
WEATHER ROUNDUP FOR NEW MEXICO
NATIONAL WEATHER SERVICE ALBUQUERQUE NM
500 PM MDT FRI JUL 25 2014

NOTE: "FAIR" MEANS FEW OR NO CLOUDS BELOW 12,000 FEET AGL WITH NO
       SIGNIFICANT WEATHER OR OBSTRUCTIONS TO VISION.

      THIS PRODUCT IS RELEASED AS TWO VERSIONS.  ONE VERSION NEAR
      THE TOP OF THE HOUR CONTAINING PRELIMINARY DATA FROM ALBUQUERQUE
      AND OTHER STATIONS.  A FINAL VERSION WITH ADDITIONAL DATA IS
      ISSUED ABOUT 10 MINUTES AFTER THE HOUR.

NMZ501-503-504-510>518-260000-
NORTHWEST PLATEAU/NORTHCENTRAL MOUNTAINS

CITY           SKY/WX    TMP DP  RH WIND       PRES   REMARKS
FARMINGTON     MOSUNNY   94  41  16 VRB7G20   30.09F
LOS ALAMOS     MOSUNNY   84  44  24 CALM      30.26F
SANTA FE       MOSUNNY   90  43  19 N6        30.16F
TAOS           MOSUNNY   86  41  20 NW3       30.23F
ANGEL FIRE     FAIR      80  44  27 W15G21    30.34F

$$
NMZ402-403-502-505>509-260000-
WESTCENTRAL MOUNTAINS/SOUTHWEST MOUNTAINS

CITY           SKY/WX    TMP DP  RH WIND       PRES   REMARKS
GALLUP         MOSUNNY   92  37  14 NW10G18   30.19F
GRANTS         MOSUNNY   87  36  16 NW5       30.21F

$$
NMZ407-409-411-412-260000-
SOUTHERN DESERTS

CITY           SKY/WX    TMP DP  RH WIND       PRES   REMARKS
LORDSBURG      FAIR      99  39  12 SE3       30.01F
DEMING         SUNNY     98  43  15 VRB7      30.02F
LAS CRUCES     SUNNY     97  38  13 E7        30.05F
T OR C         SUNNY     96  39  13 VRB3      30.05F

$$
NMZ519>523-260000-
CENTRAL VALLEYS/CENTRAL HIGHLANDS

CITY           SKY/WX    TMP DP  RH WIND       PRES   REMARKS
ALBUQUERQUE    MOSUNNY   96  40  14 W9        30.08F
DOUBLE EAGLE   MOSUNNY   91  41  17 CALM      30.14F
CLINES CORNERS MOSUNNY   90  39  16 NW12G22   30.22F
BELEN          FAIR      95  43  16 SE5       30.08F
SOCORRO        FAIR      98  36  11 SE9G17    30.04F

$$
NMZ524>526-539-540-260000-
SOUTHCENTRAL MOUNTAINS

CITY           SKY/WX    TMP DP  RH WIND       PRES   REMARKS
RUIDOSO        NOT AVBL

$$
NMZ527>531-260000-
NORTHEAST HIGHLANDS/NORTHEAST PLAINS

CITY           SKY/WX    TMP DP  RH WIND       PRES   REMARKS
LAS VEGAS      PTSUNNY   90  42  18 N9        30.19F
RATON          PTSUNNY   89  41  18 SE5       30.11F
CLAYTON        SUNNY    101  38  11 S22G33    29.99F HX  95

$$
NMZ532>537-260000-
EASTCENTRAL PLAINS

CITY           SKY/WX    TMP DP  RH WIND       PRES   REMARKS
TUCUMCARI      SUNNY    103  42  12 SW20      29.95F HX  98
CANNON AFB     SUNNY     98  51  20 S15G23    30.03F
CLOVIS AIRPORT NOT AVBL

$$
NMZ028-029-538-260000-
SOUTHEAST PLAINS

CITY           SKY/WX    TMP DP  RH WIND       PRES   REMARKS
ROSWELL        SUNNY    101  46  15 SE16G24   29.98F HX  97
ARTESIA        SUNNY     99  46  16 S12       29.98F HX  95
CARLSBAD       PTSUNNY  100  44  14 NE6       29.96F HX  96


$$



USA.gov is the U.S. government's official web portal to all federal, state and local government web resources and services.